Year,Month,Day,Hour,Minute,Value (Times are PST for temperature in C)
2016,10,12,00,00,8.30
2016,10,12,00,01,8.30
2016,10,12,00,02,8.30
2016,10,12,00,03,8.20
2016,10,12,00,04,8.20
2016,10,12,00,05,8.20
2016,10,12,00,06,8.10
2016,10,12,00,07,8.10
2016,10,12,00,08,8.10
2016,10,12,00,09,8.20
2016,10,12,00,10,8.20
2016,10,12,00,11,8.20
2016,10,12,00,12,8.20
2016,10,12,00,13,8.30
2016,10,12,00,14,8.30
2016,10,12,00,15,8.30
2016,10,12,00,16,8.30
2016,10,12,00,17,8.30
2016,10,12,00,18,8.30
2016,10,12,00,19,8.30
2016,10,12,00,20,8.30
2016,10,12,00,21,8.30
2016,10,12,00,22,8.30
2016,10,12,00,23,8.30
2016,10,12,00,24,8.20
2016,10,12,00,25,8.20
2016,10,12,00,26,8.20
2016,10,12,00,27,8.20
2016,10,12,00,28,8.10
2016,10,12,00,29,8.10
2016,10,12,00,30,8.10
2016,10,12,00,31,8.00
2016,10,12,00,32,8.00
2016,10,12,00,33,7.90
2016,10,12,00,34,7.90
2016,10,12,00,35,7.90
2016,10,12,00,36,7.80
2016,10,12,00,37,7.80
2016,10,12,00,38,7.80
2016,10,12,00,39,7.70
2016,10,12,00,40,7.70
2016,10,12,00,41,7.70
2016,10,12,00,42,7.70
2016,10,12,00,43,7.70
2016,10,12,00,44,7.80
2016,10,12,00,45,7.90
2016,10,12,00,46,8.00
2016,10,12,00,47,8.00
2016,10,12,00,48,8.10
2016,10,12,00,49,8.20
2016,10,12,00,50,8.20
2016,10,12,00,51,8.30
2016,10,12,00,52,8.30
2016,10,12,00,53,8.30
2016,10,12,00,54,8.30
2016,10,12,00,55,8.30
2016,10,12,00,56,8.30
2016,10,12,00,57,8.30
2016,10,12,00,58,8.30
2016,10,12,00,59,8.30
2016,10,12,01,00,8.30
2016,10,12,01,01,8.30
2016,10,12,01,02,8.30
2016,10,12,01,03,8.30
2016,10,12,01,04,8.20
2016,10,12,01,05,8.20
2016,10,12,01,06,8.20
2016,10,12,01,07,8.10
2016,10,12,01,08,8.10
2016,10,12,01,09,8.10
2016,10,12,01,10,8.00
2016,10,12,01,11,8.00
2016,10,12,01,12,7.90
2016,10,12,01,13,7.90
2016,10,12,01,14,7.80
2016,10,12,01,15,7.80
2016,10,12,01,16,7.80
2016,10,12,01,17,7.80
2016,10,12,01,18,7.80
2016,10,12,01,19,7.80
2016,10,12,01,20,7.80
2016,10,12,01,21,7.80
2016,10,12,01,22,7.80
2016,10,12,01,23,7.80
2016,10,12,01,24,7.90
2016,10,12,01,25,7.90
2016,10,12,01,26,8.00
2016,10,12,01,27,8.10
2016,10,12,01,28,8.10
2016,10,12,01,29,8.10
2016,10,12,01,30,8.20
2016,10,12,01,31,8.20
2016,10,12,01,32,8.20
2016,10,12,01,33,8.20
2016,10,12,01,34,8.30
2016,10,12,01,35,8.30
2016,10,12,01,36,8.30
2016,10,12,01,37,8.30
2016,10,12,01,38,8.20
2016,10,12,01,39,8.20
2016,10,12,01,40,8.20
2016,10,12,01,41,8.20
2016,10,12,01,42,8.20
2016,10,12,01,43,8.20
2016,10,12,01,44,8.10
2016,10,12,01,45,8.10
2016,10,12,01,46,8.10
2016,10,12,01,47,8.10
2016,10,12,01,48,8.10
2016,10,12,01,49,8.10
2016,10,12,01,50,8.10
2016,10,12,01,51,8.10
2016,10,12,01,52,8.00
2016,10,12,01,53,8.00
2016,10,12,01,54,7.90
2016,10,12,01,55,7.90
2016,10,12,01,56,7.90
2016,10,12,01,57,7.80
2016,10,12,01,58,7.80
2016,10,12,01,59,7.80
2016,10,12,02,00,7.70
2016,10,12,02,01,7.70
2016,10,12,02,02,7.60
2016,10,12,02,03,7.60
2016,10,12,02,04,7.50
2016,10,12,02,05,7.50
2016,10,12,02,06,7.50
2016,10,12,02,07,7.40
2016,10,12,02,08,7.50
2016,10,12,02,09,7.50
2016,10,12,02,10,7.60
2016,10,12,02,11,7.60
2016,10,12,02,12,7.60
2016,10,12,02,13,7.70
2016,10,12,02,14,7.70
2016,10,12,02,15,7.70
2016,10,12,02,16,7.70
2016,10,12,02,17,7.70
2016,10,12,02,18,7.60
2016,10,12,02,19,7.70
2016,10,12,02,20,7.70
2016,10,12,02,21,7.70
2016,10,12,02,22,7.80
2016,10,12,02,23,7.80
2016,10,12,02,24,7.80
2016,10,12,02,25,7.90
2016,10,12,02,26,7.90
2016,10,12,02,27,8.00
2016,10,12,02,28,8.00
2016,10,12,02,29,8.10
2016,10,12,02,30,8.10
2016,10,12,02,31,8.10
2016,10,12,02,32,8.10
2016,10,12,02,33,8.20
2016,10,12,02,34,8.20
2016,10,12,02,35,8.20
2016,10,12,02,36,8.20
2016,10,12,02,37,8.20
2016,10,12,02,38,8.30
2016,10,12,02,39,8.30
2016,10,12,02,40,8.30
2016,10,12,02,41,8.30
2016,10,12,02,42,8.30
2016,10,12,02,43,8.30
2016,10,12,02,44,8.20
2016,10,12,02,45,8.20
2016,10,12,02,46,8.20
2016,10,12,02,47,8.10
2016,10,12,02,48,8.10
2016,10,12,02,49,8.10
2016,10,12,02,50,8.10
2016,10,12,02,51,8.10
2016,10,12,02,52,8.10
2016,10,12,02,53,8.10
2016,10,12,02,54,8.10
2016,10,12,02,55,8.10
2016,10,12,02,56,8.10
2016,10,12,02,57,8.10
2016,10,12,02,58,8.10
2016,10,12,02,59,8.10
2016,10,12,03,00,8.10
2016,10,12,03,01,8.10
2016,10,12,03,02,8.10
2016,10,12,03,03,8.10
2016,10,12,03,04,8.10
2016,10,12,03,05,8.10
2016,10,12,03,06,8.10
2016,10,12,03,07,8.00
2016,10,12,03,08,8.00
2016,10,12,03,09,7.90
2016,10,12,03,10,7.80
2016,10,12,03,11,7.80
2016,10,12,03,12,7.80
2016,10,12,03,13,7.70
2016,10,12,03,14,7.60
2016,10,12,03,15,7.60
2016,10,12,03,16,7.50
2016,10,12,03,17,7.40
2016,10,12,03,18,7.40
2016,10,12,03,19,7.30
2016,10,12,03,20,7.30
2016,10,12,03,21,7.20
2016,10,12,03,22,7.20
2016,10,12,03,23,7.10
2016,10,12,03,24,7.10
2016,10,12,03,25,7.00
2016,10,12,03,26,7.00
2016,10,12,03,27,6.90
2016,10,12,03,28,6.80
2016,10,12,03,29,6.80
2016,10,12,03,30,6.80
2016,10,12,03,31,6.70
2016,10,12,03,32,6.70
2016,10,12,03,33,6.60
2016,10,12,03,34,6.60
2016,10,12,03,35,6.50
2016,10,12,03,36,6.50
2016,10,12,03,37,6.40
2016,10,12,03,38,6.40
2016,10,12,03,39,6.40
2016,10,12,03,40,6.30
2016,10,12,03,41,6.30
2016,10,12,03,42,6.30
2016,10,12,03,43,6.20
2016,10,12,03,44,6.20
2016,10,12,03,45,6.20
2016,10,12,03,46,6.10
2016,10,12,03,47,6.10
2016,10,12,03,48,6.10
2016,10,12,03,49,6.10
2016,10,12,03,50,6.00
2016,10,12,03,51,6.00
2016,10,12,03,52,6.00
2016,10,12,03,53,5.90
2016,10,12,03,54,5.90
2016,10,12,03,55,5.90
2016,10,12,03,56,5.90
2016,10,12,03,57,5.90
2016,10,12,03,58,5.90
2016,10,12,03,59,5.80
2016,10,12,04,00,5.80
2016,10,12,04,01,5.80
2016,10,12,04,02,5.80
2016,10,12,04,03,5.80
2016,10,12,04,04,5.70
2016,10,12,04,08,5.70
2016,10,12,04,09,5.70
2016,10,12,04,10,5.70
2016,10,12,04,11,5.70
2016,10,12,04,12,5.70
2016,10,12,04,13,5.70
2016,10,12,04,14,5.60
2016,10,12,04,15,5.60
2016,10,12,04,16,5.60
2016,10,12,04,17,5.60
2016,10,12,04,18,5.60
2016,10,12,04,19,5.60
2016,10,12,04,20,5.60
2016,10,12,04,21,5.60
2016,10,12,04,22,5.60
2016,10,12,04,23,5.60
2016,10,12,04,24,5.50
2016,10,12,04,25,5.50
2016,10,12,04,26,5.50
2016,10,12,04,27,5.50
2016,10,12,04,28,5.40
2016,10,12,04,29,5.40
2016,10,12,04,30,5.40
2016,10,12,04,31,5.40
2016,10,12,04,32,5.40
2016,10,12,04,33,5.40
2016,10,12,04,34,5.40
2016,10,12,04,35,5.40
2016,10,12,04,36,5.30
2016,10,12,04,37,5.30
2016,10,12,04,38,5.30
2016,10,12,04,39,5.30
2016,10,12,04,40,5.30
2016,10,12,04,41,5.30
2016,10,12,04,42,5.30
2016,10,12,04,43,5.30
2016,10,12,04,44,5.30
2016,10,12,04,45,5.30
2016,10,12,04,46,5.30
2016,10,12,04,47,5.30
2016,10,12,04,48,5.30
2016,10,12,04,49,5.30
2016,10,12,04,50,5.30
2016,10,12,04,51,5.30
2016,10,12,04,52,5.40
2016,10,12,04,53,5.40
2016,10,12,04,54,5.30
2016,10,12,04,55,5.30
2016,10,12,04,56,5.30
2016,10,12,04,57,5.30
2016,10,12,04,58,5.30
2016,10,12,04,59,5.30
2016,10,12,05,00,5.30
2016,10,12,05,01,5.30
2016,10,12,05,02,5.30
2016,10,12,05,03,5.30
2016,10,12,05,04,5.30
2016,10,12,05,05,5.30
2016,10,12,05,06,5.20
2016,10,12,05,07,5.20
2016,10,12,05,08,5.20
2016,10,12,05,09,5.20
2016,10,12,05,10,5.20
2016,10,12,05,11,5.20
2016,10,12,05,12,5.20
2016,10,12,05,13,5.20
2016,10,12,05,14,5.20
2016,10,12,05,15,5.20
2016,10,12,05,16,5.20
2016,10,12,05,17,5.20
2016,10,12,05,18,5.20
2016,10,12,05,19,5.20
2016,10,12,05,20,5.20
2016,10,12,05,21,5.20
2016,10,12,05,22,5.20
2016,10,12,05,23,5.20
2016,10,12,05,24,5.10
2016,10,12,05,25,5.20
2016,10,12,05,26,5.20
2016,10,12,05,27,5.10
2016,10,12,05,28,5.10
2016,10,12,05,29,5.10
2016,10,12,05,30,5.10
2016,10,12,05,31,5.10
2016,10,12,05,32,5.10
2016,10,12,05,33,5.10
2016,10,12,05,34,5.10
2016,10,12,05,35,5.10
2016,10,12,05,36,5.10
2016,10,12,05,37,5.10
2016,10,12,05,38,5.20
2016,10,12,05,39,5.10
2016,10,12,05,40,5.10
2016,10,12,05,41,5.10
2016,10,12,05,42,5.10
2016,10,12,05,43,5.10
2016,10,12,05,44,5.10
2016,10,12,05,45,5.10
2016,10,12,05,46,5.10
2016,10,12,05,47,5.10
2016,10,12,05,48,5.10
2016,10,12,05,49,5.10
2016,10,12,05,50,5.10
2016,10,12,05,51,5.10
2016,10,12,05,52,5.10
2016,10,12,05,53,5.10
2016,10,12,05,54,5.10
2016,10,12,05,55,5.00
2016,10,12,05,56,5.00
2016,10,12,05,57,5.00
2016,10,12,05,58,5.00
2016,10,12,05,59,5.00
2016,10,12,06,00,5.00
2016,10,12,06,01,5.00
2016,10,12,06,02,5.10
2016,10,12,06,03,5.10
2016,10,12,06,04,5.10
2016,10,12,06,05,5.10
2016,10,12,06,06,5.10
2016,10,12,06,07,5.10
2016,10,12,06,08,5.10
2016,10,12,06,09,5.10
2016,10,12,06,10,5.10
2016,10,12,06,11,5.10
2016,10,12,06,12,5.10
2016,10,12,06,13,5.10
2016,10,12,06,14,5.10
2016,10,12,06,15,5.00
2016,10,12,06,16,5.10
2016,10,12,06,17,5.00
2016,10,12,06,18,5.00
2016,10,12,06,19,5.00
2016,10,12,06,20,5.00
2016,10,12,06,21,5.00
2016,10,12,06,22,5.00
2016,10,12,06,23,5.00
2016,10,12,06,24,5.10
2016,10,12,06,25,5.10
2016,10,12,06,26,5.10
2016,10,12,06,27,5.10
2016,10,12,06,28,5.10
2016,10,12,06,29,5.10
2016,10,12,06,30,5.10
2016,10,12,06,31,5.10
2016,10,12,06,32,5.10
2016,10,12,06,33,5.10
2016,10,12,06,34,5.10
2016,10,12,06,35,5.10
2016,10,12,06,36,5.10
2016,10,12,06,37,5.10
2016,10,12,06,38,5.10
2016,10,12,06,39,5.10
2016,10,12,06,40,5.20
2016,10,12,06,41,5.20
2016,10,12,06,42,5.20
2016,10,12,06,43,5.20
2016,10,12,06,44,5.20
2016,10,12,06,45,5.20
2016,10,12,06,46,5.20
2016,10,12,06,47,5.20
2016,10,12,06,48,5.20
2016,10,12,06,49,5.20
2016,10,12,06,50,5.20
2016,10,12,06,51,5.20
2016,10,12,06,52,5.20
2016,10,12,06,53,5.20
2016,10,12,06,54,5.20
2016,10,12,06,55,5.30
2016,10,12,06,56,5.30
2016,10,12,06,57,5.30
2016,10,12,06,58,5.30
2016,10,12,06,59,5.30
2016,10,12,07,00,5.30
2016,10,12,07,01,5.30
2016,10,12,07,02,5.30
2016,10,12,07,03,5.30
2016,10,12,07,04,5.30
2016,10,12,07,05,5.30
2016,10,12,07,06,5.40
2016,10,12,07,07,5.40
2016,10,12,07,08,5.50
2016,10,12,07,09,5.60
2016,10,12,07,10,5.70
2016,10,12,07,11,5.80
2016,10,12,07,12,5.90
2016,10,12,07,13,6.00
2016,10,12,07,14,6.00
2016,10,12,07,15,6.10
2016,10,12,07,16,6.10
2016,10,12,07,17,6.10
2016,10,12,07,18,6.10
2016,10,12,07,19,6.20
2016,10,12,07,20,6.20
2016,10,12,07,21,6.20
2016,10,12,07,22,6.30
2016,10,12,07,23,6.30
2016,10,12,07,24,6.30
2016,10,12,07,25,6.40
2016,10,12,07,26,6.40
2016,10,12,07,27,6.40
2016,10,12,07,28,6.40
2016,10,12,07,29,6.30
2016,10,12,07,30,6.30
2016,10,12,07,31,6.30
2016,10,12,07,32,6.30
2016,10,12,07,33,6.30
2016,10,12,07,34,6.20
2016,10,12,07,35,6.20
2016,10,12,07,36,6.20
2016,10,12,07,37,6.10
2016,10,12,07,38,6.10
2016,10,12,07,39,6.10
2016,10,12,07,40,6.10
2016,10,12,07,41,6.00
2016,10,12,07,42,6.00
2016,10,12,07,43,6.00
2016,10,12,07,44,5.90
2016,10,12,07,45,5.90
2016,10,12,07,46,5.80
2016,10,12,07,47,5.80
2016,10,12,07,48,5.80
2016,10,12,07,49,5.80
2016,10,12,07,50,5.80
2016,10,12,07,51,5.70
2016,10,12,07,52,5.70
2016,10,12,07,53,5.70
2016,10,12,07,54,5.70
2016,10,12,07,55,5.70
2016,10,12,07,56,5.70
2016,10,12,07,57,5.70
2016,10,12,07,58,5.70
2016,10,12,07,59,5.60
2016,10,12,08,00,5.60
2016,10,12,08,01,5.60
2016,10,12,08,02,5.60
2016,10,12,08,03,5.60
2016,10,12,08,04,5.60
2016,10,12,08,05,5.60
2016,10,12,08,06,5.60
2016,10,12,08,07,5.60
2016,10,12,08,08,5.70
2016,10,12,08,09,5.80
2016,10,12,08,10,5.80
2016,10,12,08,11,5.90
2016,10,12,08,12,6.00
2016,10,12,08,13,6.10
2016,10,12,08,14,6.20
2016,10,12,08,15,6.30
2016,10,12,08,16,6.30
2016,10,12,08,17,6.40
2016,10,12,08,18,6.40
2016,10,12,08,19,6.50
2016,10,12,08,20,6.50
2016,10,12,08,21,6.60
2016,10,12,08,22,6.60
2016,10,12,08,23,6.70
2016,10,12,08,24,6.70
2016,10,12,08,25,6.80
2016,10,12,08,26,6.80
2016,10,12,08,27,6.80
2016,10,12,08,28,6.90
2016,10,12,08,29,6.90
2016,10,12,08,30,7.00
2016,10,12,08,31,7.00
2016,10,12,08,32,7.10
2016,10,12,08,33,7.10
2016,10,12,08,34,7.20
2016,10,12,08,35,7.20
2016,10,12,08,36,7.20
2016,10,12,08,37,7.30
2016,10,12,08,38,7.30
2016,10,12,08,39,7.30
2016,10,12,08,40,7.40
2016,10,12,08,41,7.40
2016,10,12,08,42,7.50
2016,10,12,08,43,7.50
2016,10,12,08,44,7.60
2016,10,12,08,45,7.60
2016,10,12,08,46,7.60
2016,10,12,08,47,7.70
2016,10,12,08,48,7.70
2016,10,12,08,49,7.70
2016,10,12,08,50,7.80
2016,10,12,08,51,7.80
2016,10,12,08,52,7.90
2016,10,12,08,53,7.90
2016,10,12,08,54,7.90
2016,10,12,08,55,7.90
2016,10,12,08,56,8.00
2016,10,12,08,57,8.00
2016,10,12,08,58,8.00
2016,10,12,08,59,8.10
2016,10,12,09,00,8.10
2016,10,12,09,01,8.10
2016,10,12,09,02,8.10
2016,10,12,09,03,8.20
2016,10,12,09,04,8.20
2016,10,12,09,05,8.20
2016,10,12,09,06,8.30
2016,10,12,09,07,8.30
2016,10,12,09,08,8.30
2016,10,12,09,09,8.30
2016,10,12,09,10,8.40
2016,10,12,09,11,8.40
2016,10,12,09,12,8.50
2016,10,12,09,13,8.50
2016,10,12,09,14,8.60
2016,10,12,09,15,8.60
2016,10,12,09,16,8.60
2016,10,12,09,17,8.70
2016,10,12,09,18,8.70
2016,10,12,09,19,8.70
2016,10,12,09,20,8.70
2016,10,12,09,21,8.70
2016,10,12,09,22,8.80
2016,10,12,09,23,8.80
2016,10,12,09,24,8.80
2016,10,12,09,25,8.80
2016,10,12,09,26,8.80
2016,10,12,09,27,8.80
2016,10,12,09,28,8.80
2016,10,12,09,29,8.80
2016,10,12,09,30,8.80
2016,10,12,09,31,8.90
2016,10,12,09,32,8.90
2016,10,12,09,33,8.90
2016,10,12,09,34,8.90
2016,10,12,09,35,8.90
2016,10,12,09,36,8.90
2016,10,12,09,37,8.90
2016,10,12,09,38,8.90
2016,10,12,09,39,8.90
2016,10,12,09,40,8.90
2016,10,12,09,41,8.90
2016,10,12,09,42,8.90
2016,10,12,09,43,8.90
2016,10,12,09,44,8.90
2016,10,12,09,45,8.90
2016,10,12,09,46,8.90
2016,10,12,09,47,9.00
2016,10,12,09,48,9.00
2016,10,12,09,49,9.00
2016,10,12,09,50,9.00
2016,10,12,09,51,8.90
2016,10,12,09,52,8.90
2016,10,12,09,53,9.00
2016,10,12,09,54,9.00
2016,10,12,09,55,9.00
2016,10,12,09,56,9.10
2016,10,12,09,57,9.10
2016,10,12,09,58,9.20
2016,10,12,09,59,9.30
2016,10,12,10,00,9.30
2016,10,12,10,01,9.40
2016,10,12,10,02,9.40
2016,10,12,10,03,9.40
2016,10,12,10,04,9.40
2016,10,12,10,05,9.50
2016,10,12,10,06,9.50
2016,10,12,10,07,9.50
2016,10,12,10,08,9.50
2016,10,12,10,09,9.40
2016,10,12,10,10,9.40
2016,10,12,10,11,9.40
2016,10,12,10,12,9.40
2016,10,12,10,13,9.40
2016,10,12,10,14,9.40
2016,10,12,10,15,9.40
2016,10,12,10,16,9.40
2016,10,12,10,17,9.40
2016,10,12,10,18,9.40
2016,10,12,10,19,9.40
2016,10,12,10,20,9.40
2016,10,12,10,21,9.40
2016,10,12,10,22,9.50
2016,10,12,10,23,9.50
2016,10,12,10,24,9.50
2016,10,12,10,25,9.60
2016,10,12,10,26,9.60
2016,10,12,10,27,9.70
2016,10,12,10,28,9.80
2016,10,12,10,29,9.80
2016,10,12,10,30,9.80
2016,10,12,10,31,9.90
2016,10,12,10,32,10.00
2016,10,12,10,33,10.10
2016,10,12,10,34,10.20
2016,10,12,10,35,10.20
2016,10,12,10,36,10.30
2016,10,12,10,37,10.30
2016,10,12,10,38,10.40
2016,10,12,10,39,10.40
2016,10,12,10,40,10.40
2016,10,12,10,41,10.40
2016,10,12,10,42,10.40
2016,10,12,10,43,10.40
2016,10,12,10,44,10.40
2016,10,12,10,45,10.30
2016,10,12,10,46,10.20
2016,10,12,10,47,10.20
2016,10,12,10,48,10.20
2016,10,12,10,49,10.20
2016,10,12,10,50,10.30
2016,10,12,10,51,10.30
2016,10,12,10,52,10.30
2016,10,12,10,53,10.40
2016,10,12,10,54,10.40
2016,10,12,10,55,10.40
2016,10,12,10,56,10.40
2016,10,12,10,57,10.30
2016,10,12,10,58,10.30
2016,10,12,10,59,10.30
2016,10,12,11,00,10.40
2016,10,12,11,01,10.40
2016,10,12,11,02,10.40
2016,10,12,11,03,10.40
2016,10,12,11,04,10.50
2016,10,12,11,05,10.50
2016,10,12,11,06,10.60
2016,10,12,11,07,10.70
2016,10,12,11,08,10.70
2016,10,12,11,09,10.80
2016,10,12,11,10,10.80
2016,10,12,11,11,10.90
2016,10,12,11,12,10.90
2016,10,12,11,13,11.00
2016,10,12,11,14,10.90
2016,10,12,11,15,10.90
2016,10,12,11,16,10.90
2016,10,12,11,17,10.80
2016,10,12,11,18,10.80
2016,10,12,11,19,10.80
2016,10,12,11,20,10.80
2016,10,12,11,21,10.80
2016,10,12,11,22,10.90
2016,10,12,11,23,10.90
2016,10,12,11,24,10.80
2016,10,12,11,25,10.80
2016,10,12,11,26,10.80
2016,10,12,11,27,10.80
2016,10,12,11,28,10.80
2016,10,12,11,29,10.80
2016,10,12,11,30,10.80
2016,10,12,11,31,10.80
2016,10,12,11,32,10.80
2016,10,12,11,33,10.80
2016,10,12,11,34,10.80
2016,10,12,11,35,10.80
2016,10,12,11,36,10.80
2016,10,12,11,37,10.90
2016,10,12,11,38,10.90
2016,10,12,11,39,10.90
2016,10,12,11,40,11.00
2016,10,12,11,41,11.00
2016,10,12,11,42,11.10
2016,10,12,11,43,11.20
2016,10,12,11,44,11.20
2016,10,12,11,45,11.30
2016,10,12,11,46,11.40
2016,10,12,11,47,11.40
2016,10,12,11,48,11.50
2016,10,12,11,49,11.50
2016,10,12,11,50,11.50
2016,10,12,11,51,11.50
2016,10,12,11,52,11.60
2016,10,12,11,53,11.60
2016,10,12,11,54,11.60
2016,10,12,11,55,11.60
2016,10,12,11,56,11.60
2016,10,12,11,57,11.50
2016,10,12,11,58,11.50
2016,10,12,11,59,11.50
2016,10,12,12,00,11.50
2016,10,12,12,01,11.50
2016,10,12,12,02,11.40
2016,10,12,12,03,11.40
2016,10,12,12,04,11.30
2016,10,12,12,05,11.30
2016,10,12,12,06,11.30
2016,10,12,12,07,11.30
2016,10,12,12,08,11.30
2016,10,12,12,09,11.30
2016,10,12,12,10,11.30
2016,10,12,12,11,11.30
2016,10,12,12,12,11.40
2016,10,12,12,13,11.40
2016,10,12,12,14,11.40
2016,10,12,12,15,11.30
2016,10,12,12,16,11.30
2016,10,12,12,17,11.30
2016,10,12,12,18,11.20
2016,10,12,12,19,11.20
2016,10,12,12,20,11.20
2016,10,12,12,21,11.20
2016,10,12,12,22,11.30
2016,10,12,12,23,11.30
2016,10,12,12,24,11.30
2016,10,12,12,25,11.30
2016,10,12,12,26,11.30
2016,10,12,12,27,11.40
2016,10,12,12,28,11.40
2016,10,12,12,29,11.40
2016,10,12,12,30,11.40
2016,10,12,12,31,11.40
2016,10,12,12,32,11.30
2016,10,12,12,33,11.30
2016,10,12,12,34,11.30
2016,10,12,12,35,11.40
2016,10,12,12,36,11.40
2016,10,12,12,37,11.40
2016,10,12,12,38,11.50
2016,10,12,12,39,11.60
2016,10,12,12,40,11.60
2016,10,12,12,41,11.60
2016,10,12,12,42,11.70
2016,10,12,12,43,11.70
2016,10,12,12,44,11.80
2016,10,12,12,45,11.80
2016,10,12,12,46,11.80
2016,10,12,12,47,11.80
2016,10,12,12,48,11.80
2016,10,12,12,49,11.80
2016,10,12,12,50,11.70
2016,10,12,12,51,11.80
2016,10,12,12,52,11.80
2016,10,12,12,53,11.80
2016,10,12,12,54,11.80
2016,10,12,12,55,11.80
2016,10,12,12,56,11.80
2016,10,12,12,57,11.80
2016,10,12,12,58,11.80
2016,10,12,12,59,11.80
2016,10,12,13,00,11.80
2016,10,12,13,01,11.90
2016,10,12,13,02,11.90
2016,10,12,13,03,12.00
2016,10,12,13,04,12.00
2016,10,12,13,05,12.10
2016,10,12,13,06,12.10
2016,10,12,13,07,12.20
2016,10,12,13,08,12.20
2016,10,12,13,09,12.20
2016,10,12,13,10,12.20
2016,10,12,13,11,12.20
2016,10,12,13,12,12.30
2016,10,12,13,13,12.30
2016,10,12,13,14,12.30
2016,10,12,13,15,12.30
2016,10,12,13,16,12.30
2016,10,12,13,17,12.30
2016,10,12,13,18,12.30
2016,10,12,13,19,12.30
2016,10,12,13,20,12.40
2016,10,12,13,21,12.40
2016,10,12,13,22,12.50
2016,10,12,13,23,12.60
2016,10,12,13,24,12.70
2016,10,12,13,25,12.80
2016,10,12,13,26,12.90
2016,10,12,13,27,13.00
2016,10,12,13,28,13.10
2016,10,12,13,29,13.20
2016,10,12,13,30,13.30
2016,10,12,13,31,13.30
2016,10,12,13,32,13.30
2016,10,12,13,33,13.40
2016,10,12,13,34,13.40
2016,10,12,13,35,13.40
2016,10,12,13,36,13.50
2016,10,12,13,37,13.60
2016,10,12,13,38,13.60
2016,10,12,13,39,13.70
2016,10,12,13,40,13.70
2016,10,12,13,41,13.70
2016,10,12,13,42,13.70
2016,10,12,13,43,13.80
2016,10,12,13,44,13.80
2016,10,12,13,45,13.80
2016,10,12,13,46,13.80
2016,10,12,13,47,13.80
2016,10,12,13,48,13.80
2016,10,12,13,49,13.80
2016,10,12,13,50,13.80
2016,10,12,13,51,13.80
2016,10,12,13,52,13.80
2016,10,12,13,53,13.80
2016,10,12,13,54,13.80
2016,10,12,13,55,13.80
2016,10,12,13,56,13.80
2016,10,12,13,57,13.80
2016,10,12,13,58,13.80
2016,10,12,13,59,13.80
2016,10,12,14,00,13.80
2016,10,12,14,01,13.80
2016,10,12,14,02,13.80
2016,10,12,14,03,13.80
2016,10,12,14,04,13.80
2016,10,12,14,05,13.80
2016,10,12,14,06,13.90
2016,10,12,14,07,13.90
2016,10,12,14,08,14.00
2016,10,12,14,09,14.10
2016,10,12,14,10,14.10
2016,10,12,14,11,14.20
2016,10,12,14,12,14.20
2016,10,12,14,13,14.30
2016,10,12,14,14,14.30
2016,10,12,14,15,14.30
2016,10,12,14,16,14.20
2016,10,12,14,17,14.20
2016,10,12,14,18,14.20
2016,10,12,14,19,14.20
2016,10,12,14,20,14.20
2016,10,12,14,21,14.10
2016,10,12,14,22,14.00
2016,10,12,14,23,13.90
2016,10,12,14,24,13.80
2016,10,12,14,25,13.80
2016,10,12,14,26,13.80
2016,10,12,14,27,13.80
2016,10,12,14,28,13.80
2016,10,12,14,29,13.70
2016,10,12,14,30,13.80
2016,10,12,14,31,13.80
2016,10,12,14,32,13.80
2016,10,12,14,33,13.80
2016,10,12,14,34,13.70
2016,10,12,14,35,13.70
2016,10,12,14,36,13.70
2016,10,12,14,37,13.70
2016,10,12,14,38,13.70
2016,10,12,14,39,13.80
2016,10,12,14,40,13.80
2016,10,12,14,41,13.90
2016,10,12,14,42,14.00
2016,10,12,14,43,14.10
2016,10,12,14,44,14.10
2016,10,12,14,45,14.10
2016,10,12,14,46,14.10
2016,10,12,14,47,14.00
2016,10,12,14,48,13.90
2016,10,12,14,49,13.90
2016,10,12,14,50,13.80
2016,10,12,14,51,13.80
2016,10,12,14,52,13.70
2016,10,12,14,53,13.70
2016,10,12,14,54,13.70
2016,10,12,14,55,13.60
2016,10,12,14,56,13.60
2016,10,12,14,57,13.50
2016,10,12,14,58,13.50
2016,10,12,14,59,13.40
2016,10,12,15,00,13.40
2016,10,12,15,01,13.40
2016,10,12,15,02,13.40
2016,10,12,15,03,13.30
2016,10,12,15,04,13.30
2016,10,12,15,05,13.30
2016,10,12,15,06,13.30
2016,10,12,15,07,13.30
2016,10,12,15,08,13.30
2016,10,12,15,09,13.20
2016,10,12,15,10,13.20
2016,10,12,15,11,13.20
2016,10,12,15,12,13.20
2016,10,12,15,13,13.20
2016,10,12,15,14,13.20
2016,10,12,15,15,13.20
2016,10,12,15,16,13.20
2016,10,12,15,17,13.20
2016,10,12,15,18,13.20
2016,10,12,15,19,13.20
2016,10,12,15,20,13.20
2016,10,12,15,21,13.30
2016,10,12,15,22,13.20
2016,10,12,15,23,13.20
2016,10,12,15,24,13.20
2016,10,12,15,25,13.20
2016,10,12,15,26,13.20
2016,10,12,15,27,13.10
2016,10,12,15,28,13.10
2016,10,12,15,29,13.10
2016,10,12,15,30,13.10
2016,10,12,15,31,13.10
2016,10,12,15,32,13.10
2016,10,12,15,33,13.00
2016,10,12,15,34,13.00
2016,10,12,15,35,13.00
2016,10,12,15,36,13.00
2016,10,12,15,37,12.90
2016,10,12,15,38,12.90
2016,10,12,15,39,12.90
2016,10,12,15,40,12.90
2016,10,12,15,41,12.90
2016,10,12,15,42,12.90
2016,10,12,15,43,12.90
2016,10,12,15,44,12.80
2016,10,12,15,45,12.80
2016,10,12,15,46,12.80
2016,10,12,15,47,12.80
2016,10,12,15,48,12.80
2016,10,12,15,49,12.80
2016,10,12,15,50,12.80
2016,10,12,15,51,12.80
2016,10,12,15,52,12.80
2016,10,12,15,53,12.70
2016,10,12,15,54,12.70
2016,10,12,15,55,12.70
2016,10,12,15,56,12.70
2016,10,12,15,57,12.70
2016,10,12,15,58,12.60
2016,10,12,15,59,12.60
2016,10,12,16,00,12.60
2016,10,12,16,01,12.60
2016,10,12,16,02,12.60
2016,10,12,16,03,12.60
2016,10,12,16,04,12.60
2016,10,12,16,05,12.60
2016,10,12,16,06,12.60
2016,10,12,16,07,12.60
2016,10,12,16,08,12.50
2016,10,12,16,09,12.50
2016,10,12,16,10,12.50
2016,10,12,16,11,12.50
2016,10,12,16,12,12.40
2016,10,12,16,13,12.40
2016,10,12,16,14,12.40
2016,10,12,16,15,12.40
2016,10,12,16,16,12.40
2016,10,12,16,17,12.40
2016,10,12,16,18,12.40
2016,10,12,16,19,12.40
2016,10,12,16,20,12.40
2016,10,12,16,21,12.30
2016,10,12,16,22,12.30
2016,10,12,16,23,12.30
2016,10,12,16,24,12.30
2016,10,12,16,25,12.30
2016,10,12,16,26,12.30
2016,10,12,16,27,12.30
2016,10,12,16,28,12.30
2016,10,12,16,29,12.30
2016,10,12,16,30,12.30
2016,10,12,16,31,12.20
2016,10,12,16,32,12.20
2016,10,12,16,33,12.20
2016,10,12,16,34,12.20
2016,10,12,16,35,12.30
2016,10,12,16,36,12.30
2016,10,12,16,37,12.20
2016,10,12,16,38,12.20
2016,10,12,16,39,12.20
2016,10,12,16,40,12.20
2016,10,12,16,41,12.20
2016,10,12,16,42,12.20
2016,10,12,16,43,12.20
2016,10,12,16,44,12.20
2016,10,12,16,45,12.20
2016,10,12,16,46,12.20
2016,10,12,16,47,12.20
2016,10,12,16,48,12.20
2016,10,12,16,49,12.20
2016,10,12,16,50,12.10
2016,10,12,16,51,12.10
2016,10,12,16,52,12.10
2016,10,12,16,53,12.10
2016,10,12,16,54,12.10
2016,10,12,16,55,12.10
2016,10,12,16,56,12.10
2016,10,12,16,57,12.10
2016,10,12,16,58,12.10
2016,10,12,16,59,12.10
2016,10,12,17,00,12.10
2016,10,12,17,01,12.10
2016,10,12,17,02,12.10
2016,10,12,17,03,12.10
2016,10,12,17,04,12.10
2016,10,12,17,05,12.10
2016,10,12,17,06,12.10
2016,10,12,17,07,12.10
2016,10,12,17,08,12.10
2016,10,12,17,09,12.10
2016,10,12,17,10,12.10
2016,10,12,17,11,12.10
2016,10,12,17,12,12.10
2016,10,12,17,13,12.10
2016,10,12,17,14,12.10
2016,10,12,17,15,12.10
2016,10,12,17,16,12.10
2016,10,12,17,17,12.10
2016,10,12,17,18,12.10
2016,10,12,17,19,12.10
2016,10,12,17,20,12.10
2016,10,12,17,21,12.20
2016,10,12,17,22,12.20
2016,10,12,17,23,12.20
2016,10,12,17,24,12.20
2016,10,12,17,25,12.20
2016,10,12,17,26,12.20
2016,10,12,17,27,12.20
2016,10,12,17,28,12.10
2016,10,12,17,29,12.10
2016,10,12,17,30,12.20
2016,10,12,17,31,12.10
2016,10,12,17,32,12.20
2016,10,12,17,33,12.20
2016,10,12,17,34,12.20
2016,10,12,17,35,12.10
2016,10,12,17,36,12.10
2016,10,12,17,37,12.10
2016,10,12,17,38,12.10
2016,10,12,17,39,12.10
2016,10,12,17,40,12.10
2016,10,12,17,41,12.10
2016,10,12,17,42,12.10
2016,10,12,17,43,12.10
2016,10,12,17,44,12.10
2016,10,12,17,45,12.10
2016,10,12,17,46,12.10
2016,10,12,17,47,12.10
2016,10,12,17,48,12.10
2016,10,12,17,49,12.10